Location: Unspecified
(41.9031°N, 12.4386°E)
Time: 16:28:04
(UTC+02:00)

ISS - Pass Details

Date: 01 June 2020
Orbit: 417 x 420 km, 51.6° (Epoch: 25 May)

Event Time Altitude Azimuth Distance (km) Brightness Sun altitude
Rises 23:13:12 0° 286° (WNW) 2,362 0.7 -20.6°
Reaches altitude 10° 23:16:22 10° 254° (WSW) 1,494 -0.8 -20.9°
Enters shadow 23:16:55 11° 245° (WSW) 1,421 -1.1 -20.9°
